AirNav   Air Wisconsin Up To $57,000 Bonus
 
 1025 users online  

KRBD Dallas Executive Airport
Dallas, Texas, USA

GOING TO DALLAS?


FAA INFORMATION EFFECTIVE 15 JULY 2021

Location

FAA Identifier: RBD
Lat/Long: 32-40-52.7000N 096-52-07.6000W
32-40.878333N 096-52.126667W
32.6813056,-96.8687778
(estimated)
Elevation: 660.5 ft. / 201 m (estimated)
Variation: 06E (1990)
From city: 6 miles SW of DALLAS, TX
Time zone: UTC -5 (UTC -6 during Standard Time)
Zip code: 75237

Airport Operations

Airport use: Open to the public
Activation date: 09/1948
Control tower: yes
ARTCC: FORT WORTH CENTER
FSS: FORT WORTH FLIGHT SERVICE STATION
NOTAMs facility: RBD (NOTAM-D service available)
Attendance: 0600-2000
ON CALL AFT HRS.
Wind indicator: lighted
Segmented circle: yes
Lights: WHEN ATCT CLSD ACTVT PAPI RWY 13 & 17 - CTAF. MIRL RWY 13/31; RWY 17/35 PRESET LOW INTST; TO INCR INTST ACTVT - CTAF.
Beacon: white-green (lighted land airport)
Operates sunset to sunrise.

Airport Communications

CTAF: 127.25
UNICOM: 122.95
ATIS: 126.35
WX ASOS: PHONE 214-330-5317
EXECUTIVE GROUND: 119.475 [0700-2100]
EXECUTIVE TOWER: 127.25 [0700-2100]
REGIONAL APPROACH: 125.2
REGIONAL DEPARTURE: 125.2
CLEARANCE DELIVERY: 118.625
DODJE STAR: 125.2 125.9
EMERG: 121.5
FINGR STAR: 124.3 125.275
GREGS STAR: 118.1
JFRYE STAR: 118.1
JOE POOL DP: 125.2
KNEAD STAR: 135.975
REEKO STAR: 125.2
SLANT STAR: 125.275
SWVAY STAR: 135.975
YEAGR STAR: 125.025 125.275
WX AWOS-3 at 49T (6 nm NE): 135.425 (214-670-1243)
WX AWOS-3P at GPM (9 nm W): 118.475 (972-606-1433)
WX AWOS-3 at LNC (10 nm SE): 118.975 (972-227-0471)
WX ASOS at DAL (10 nm N): PHONE 214-353-1551
WX ASOS at GKY (11 nm W): 127.375 (817-557-0251)
WX AWOS-3 at JWY (14 nm S): 119.575 (972-937-4747)
WX ASOS at DFW (16 nm NW): PHONE 972-615-2608
WX AWOS-3 at ADS (17 nm N): PHONE 972-386-4855
WX AWOS-3 at HQZ (18 nm E): 118.175 (972-222-7631)

Nearby radio navigation aids

VOR radial/distance  VOR name  Freq  Var
CVEr166/12.7COWBOY VOR/DME116.2006E
TTTr136/14.2MAVERICK VOR/DME113.1006E
FUZr123/20.0RANGER VORTAC115.7006E

 
NDB name  Hdg/Dist  Freq  Var  ID
MESQUITE243/18.824803EPQF .--. --.- ..-.
TRAVIS255/31.626006EAVZ .- ...- --..

Airport Services

Fuel available: 100LL JET-A
100LL:FUEL AVBL 24 HR WITH MAJOR CREDIT CARD.
Parking: hangars and tiedowns
Airframe service: MAJOR
Powerplant service: MAJOR
Bulk oxygen: HIGH/LOW

Runway Information

Runway 13/31

Dimensions: 7136 x 100 ft. / 2175 x 30 m
Surface: concrete/grooved, in good condition
Weight bearing capacity: 
Single wheel: 40.0
Double wheel: 90.0
Double tandem: 130.0
Runway edge lights: medium intensity
RUNWAY 13  RUNWAY 31
Latitude: 32-41.319333N32-40.485970N
Longitude: 096-52.680167W096-51.697752W
Elevation: 653.4 ft.646.9 ft.
Traffic pattern: leftleft
Runway heading: 129 magnetic, 135 true309 magnetic, 315 true
Displaced threshold: 1085 ft.500 ft.
Declared distances: TORA:6766 TODA:7136 ASDA:6622 LDA:5537TORA:6051 TODA:7136 ASDA:7101 LDA:6601
Markings: nonprecision, in good conditionprecision, in good condition
Visual slope indicator: 4-light PAPI on left (3.00 degrees glide path)4-light PAPI on right (3.00 degrees glide path)
Runway end identifier lights: yesyes
Touchdown point: yes, no lightsyes, no lights
Instrument approach: ILS/DME
Obstructions: none7 ft. road, 547 ft. from runway, 513 ft. right of centerline, 49:1 slope to clear

Runway 17/35

Dimensions: 3800 x 150 ft. / 1158 x 46 m
Surface: concrete, in good condition
Weight bearing capacity: 
Single wheel: 35.0
Double wheel: 60.0
Double tandem: 110.0
Runway edge lights: medium intensity
RUNWAY 17  RUNWAY 35
Latitude: 32-41.147942N32-40.521410N
Longitude: 096-52.007498W096-52.009178W
Elevation: 650.6 ft.659.2 ft.
Traffic pattern: leftleft
Runway heading: 174 magnetic, 180 true354 magnetic, 000 true
Markings: nonprecision, in good conditionnonprecision, in good condition
Visual slope indicator: 4-light PAPI on right (3.00 degrees glide path)
Runway end identifier lights: yesyes
Touchdown point: yes, no lightsyes, no lights

Airport Ownership and Management from official FAA records

Ownership: Publicly-owned
Owner: CITY OF DALLAS
1500 MARILLA
DALLAS, TX 75201
Phone 214-670-7612
Manager: RAFAEL GARZA JR.
5303 CHALLENGER DR.
DALLAS, TX 75237
Phone 214-670-1296

Airport Operational Statistics

Aircraft based on the field: 313
Single engine airplanes: 211
Multi engine airplanes: 42
Jet airplanes: 41
Helicopters: 17
Gliders airplanes: 2
    
Aircraft operations: avg 118/day *
60% transient general aviation
39% local general aviation
<1% military
<1% air taxi
* for 12-month period ending 31 December 2015

Additional Remarks

BIRDS ON & INVOF ARPT.

Instrument Procedures

NOTE: All procedures below are presented as PDF files. If you need a reader for these files, you should download the free Adobe Reader.

NOT FOR NAVIGATION. Please procure official charts for flight.
FAA instrument procedures published for use from 15 July 2021 at 0901Z to 12 August 2021 at 0900z.

 
STARs - Standard Terminal Arrivals
DODJE SIX   2 pages: [1] [2] (766KB)
FINGR SEVEN   2 pages: [1] [2] (501KB)
GREGS NINE   2 pages: [1] [2] (588KB)
HERBZ ONE (RNAV) **NEW**   download (296KB)
JFRYE FOUR (RNAV) **NEW**   download (281KB)
REEKO THREE (RNAV)   download (214KB)
SLANT THREE (RNAV)   download (250KB)
SWVAY FOUR (RNAV) **CHANGED**   download (246KB)
 
IAPs - Instrument Approach Procedures
ILS OR LOC RWY 31   download (231KB)
RNAV (GPS) RWY 17   download (168KB)
RNAV (GPS) RWY 31   download (191KB)
RNAV (GPS) RWY 35   download (170KB)
VOR RWY 17   download (197KB)
NOTE: Special Alternate Minimums apply   download (126KB)
 
Departure Procedures
DALLAS EIGHT **NEW**   2 pages: [1] [2] (404KB)
GARLAND ONE **NEW**   2 pages: [1] [2] (392KB)
JOE POOL THREE **NEW**   2 pages: [1] [2] (593KB)
KINGDOM NINE **NEW**   2 pages: [1] [2] (423KB)
KUSSO EIGHT (RNAV) **NEW**   2 pages: [1] [2] (372KB)
SWABR EIGHT (RNAV) **NEW**   2 pages: [1] [2] (371KB)
TEXOMA ONE **NEW**   2 pages: [1] [2] (510KB)
WORTH SIX **NEW**   2 pages: [1] [2] (468KB)
NOTE: Special Take-Off Minimums/Departure Procedures apply   download (308KB)

Other nearby airports with instrument procedures:

KGPM - Grand Prairie Municipal Airport (9 nm W)
KLNC - Lancaster Regional Airport (10 nm SE)
KDAL - Dallas Love Field Airport (10 nm N)
KGKY - Arlington Municipal Airport (11 nm W)
KJWY - Mid-Way Regional Airport (14 nm S)
KDFW - Dallas-Fort Worth International Airport (16 nm NW)
KADS - Addison Airport (17 nm N)
KHQZ - Mesquite Metro Airport (18 nm E)
 
Loc | Ops | Rwys | IFR | FBO | Links
Com | Nav | Svcs | Stats | Notes

Dallas Jet
 
Area around KRBD (Dallas Executive Airport)
 
Road maps at: MapQuest Bing Google
 
Aerial photo
WARNING: Photo may not be current or correct
Aerial photo of KRBD (Dallas Executive Airport)
Photo by Bryant Sivess
Photo taken 07-Dec-2015
looking northwest.

Do you have a better or more recent aerial photo of Dallas Executive Airport that you would like to share? If so, please send us your photo.

 
Sectional chart

 
Airport diagram
CAUTION: Diagram may not be current
Diagram of KRBD (Dallas Executive Airport)
Download PDF
of official airport diagram from the FAA

 
Airport distance calculator
Flying to Dallas Executive Airport? Find the distance to fly.

From to KRBD

Sunrise and sunset
Times for 01-Aug-2021
 Local
(UTC-5)
 Zulu
(UTC)
Morning civil twilight06:1611:16
Sunrise06:4211:42
Sunset20:2501:25
Evening civil twilight20:5201:52

Current date and time
Zulu (UTC)  02-Aug-2021 02:10:57
Local (UTC-5)  01-Aug-2021 21:10:57
 
METAR
KRBD 020153Z AUTO 32009KT 10SM -RA FEW120 24/22 A3002 RMK AO2 SLP157 P0001 T02390222 $
KGPM 
9nm W 
012350Z 00000KT 10SM SKC 24/24 A2999
KLNC 
10nm SE 
020155Z AUTO 30007KT 10SM DZ SCT050 BKN080 OVC100 24/23 A3002 RMK AO2 LTG DSNT W P0001 T02430231
KDAL 
10nm N 
020153Z 32011KT 10SM -RA SCT045 BKN110 BKN170 OVC230 25/23 A3002 RMK AO2 SLP159 P0003 T02500228 $
KGKY 
12nm W 
020153Z 32009KT 10SM -RA SCT120 26/23 A3003 RMK AO2 LTG DSNT W SLP157 P0006 T02560228
KJWY 
14nm S 
020155Z AUTO 34008KT 10SM -RA BKN110 24/24 A3003 RMK AO2 P0001 T02350235
KDFW 
15nm NW 
020153Z 32008KT 10SM -RA FEW045 FEW095 BKN130 OVC250 24/22 A3003 RMK AO2 SLP159 P0004 T02390222 $
KADS 
17nm N 
020150Z 29007KT 10SM SCT046 OVC055 25/23 A3005
KHQZ 
18nm E 
020155Z AUTO 31005KT 10SM BKN050 BKN070 25/25 A3002 RMK AO1 P0001 T02530250
TAF
KDAL 
10nm N 
012209Z 0122/0218 02013KT P6SM -SHRA VCTS SCT050 BKN070CB BKN150 TEMPO 0122/0123 VRB20G35KT 4SM -TSRA BR BKN045CB FM020100 03009KT P6SM VCSH BKN070 OVC250 FM020400 01007KT P6SM SCT035 BKN050 FM020900 36008KT P6SM VCTS SCT030CB OVC250 FM021300 01009KT P6SM SCT025 BKN040
KGKY 
12nm W 
012210Z 0122/0218 02013KT 4SM -SHRA VCTS SCT015 BKN040CB BKN150 TEMPO 0122/0123 VRB30G40KT 1SM TSRA BR BKN008CB FM020100 03009KT P6SM VCSH BKN070 OVC250 FM020400 01007KT P6SM SCT035 BKN050 FM020900 36008KT P6SM VCTS SCT030CB OVC250 FM021300 01009KT P6SM SCT025 BKN040
KDFW 
15nm NW 
012209Z 0122/0224 02013KT P6SM -SHRA VCTS SCT050 BKN070CB BKN150 TEMPO 0122/0123 VRB20G35KT 4SM -TSRA BR BKN045CB FM020100 03009KT P6SM VCSH BKN070 OVC250 FM020400 01007KT P6SM SCT035 BKN050 FM020900 36008KT P6SM VCTS SCT030CB OVC250 FM021300 01009KT P6SM SCT025 BKN040
NOTAMs
Click for the latest NOTAMs
NOTAMs are issued by the DoD/FAA and will open in a separate window not controlled by AirNav.

 

 
 

FBO, Fuel Providers, and Aircraft Ground Support

  
 Business Name 
 
 Contact 
 
 Services / Description 
 
Fuel Prices
 
Comments
  
Ambassador Jet Center
Ambassador Jet Center
ASRI 131.90
214-623-8800
214-251-6512
[web site]
[email]
Premier FBO situated minutes south of Downtown Dallas in the growing Southern Sector of the Dallas warehouse and distribution district.

No daily ramp or landing fees (overnight ramp and hangar fees do apply.)

Enjoy unmatched personal service and inviting facilities designed to make your stay enjoyable.

Give one of our Customer Service Agents a call today and let us arrange your next Metro Dallas area visit..
More info and photos of Ambassador Jet Center
 
AirBoss™ fuel program   Limousine service   NATA Safety 1st   U.S. Government AIR Card   CAA Preferred FBO   UVair   World Fuel Contract Fuel   Contract Fuel   Crew cars   Enterprise Rent-A-Car   Go Rentals   Hertz   National Business Aviation Association  
 
Avfuel
100LL Jet A
FS $4.55 $3.85 
GUARANTEED
AirBossMEMBER
PRICING
FS $4.45 $3.70 
 
   35 read write
Dallas Jet
Call for volume discounts
ASRI 128.975
817-532-5080
[web site]
[email]
NOW OPEN

We know maximizing your time on the ground is important. Dallas Jet is conveniently located less than 20 minutes from downtown Dallas. Let our concierge team coordinate everything you need to make the most of your trip to Dallas.

- Fuel Volume Discounts
- Contract Fuel
- After-hours Available
- Courtesy Vehicles
- Rental Cars On-Site
- Hangar & Office Space Available
- Aircraft Sales (Jet Agency)
- 135 Charter (Jet Access Aviation)
- Less than 20 minutes from Downtown Dallas
- Minutes from the Convention Center & Market Center
- Easy access to I-35
- Call for Customized Fuel Pricing
More info and photos of Dallas Jet
 
NATA Safety 1st   Titan Contract Fuel   Titan Rewards   Contract Fuel   Crew cars   Enterprise Rent-A-Car   Go Rentals   Certificated Pilot School   Wireless Internet Access (WiFi)   National Business Aviation Association  
 
Titan
100LL Jet A
FS $4.59 $3.89 
GUARANTEED
 
   9 read write
Alternatives at nearby airports
IMPORTANT: Note that the FBOs below are NOT at KRBD but at other nearby airports. Do not expect services from these FBOs to be available at KRBD.
Located at KHQZ
 Mesquite Metro Airport
972-216-4132
972-216-4130
[web site]
[email]
At KHQZ (Mesquite Metro Airport), 18 miles ENE

No delays. Competitive prices. Sincere Service. Touch down at Mesquite Metro Airport and find out why we are the best approach into Dallas.
More info and photos of Mesquite Metro Airport (KHQZ)
Located at KHQZ
Titan
100LL Jet A
FS $5.20 $4.55 
SS $4.55 $4.05 
GUARANTEED
 
   6 read write
FS=Full service
SS=Self service
Update Fuel Prices
 

Getting Around: Taxi, Limo, Rental Cars, Mass Transit

  
 Business Name 
 
 Contact 
 
Services / Description
 
Comments
  
DART, Red Bird Transit Center 214-979-1111
no information available

If you are affiliated with DART, Red Bird Transit Center and would like to show here your services, contact info, web link, logo, and more, click here
 
   write
 

Where to Eat: Catering, Restaurants, Food shops

  
 Business Name 
 
 Contact 
 
 Services / Description 
 
Distance
 
Comments
  
Delta Charlie's Restaurant Bar and Grill 214-623-9944
no information available

If you are affiliated with Delta Charlie's Restaurant Bar and Grill and would like to show here your services, contact info, web link, logo, and more, click here
on airport  
   2 read write
 

Would you like to see your business listed on this page?

 If your business provides an interesting product or service to pilots, flight crews, aircraft, or users of the Dallas Executive Airport, you should consider listing it here.  To start the listing process, click on the button below
 
Add a business
 

Other Pages about Dallas Executive Airport

www.dallasexecairport.com
 
Update a link
 
Copyright © AirNav, LLC. All rights reserved. Privacy Policy  Contact